Weather History for Durango, CO

Change the Weather History Date:

Wednesday, March 26, 2014

  Actual Average Record
Temperature  
Mean Temperature 44 °F 40 °F  
Max Temperature 55 °F 55 °F 76 °F (1971)
Min Temperature 33 °F 25 °F 10 °F (1980)
Degree Days  
Heating Degree Days 21 25  
Month to date heating degree days 693 734  
Since 1 July heating degree days 5626 5909  
Cooling Degree Days 0 0  
Month to date cooling degree days 0 0  
Year to date cooling degree days 0 0  
Moisture  
Dew Point 26 °F    
Average Humidity 57    
Maximum Humidity 96    
Minimum Humidity 17    
Precipitation  
Precipitation 0.01 in 0.04 in 0.56 in (1975)
Month to date precipitation 1.00 1.05  
Year to date precipitation 1.53 3.33  
Sea Level Pressure  
Sea Level Pressure 29.66 in    
Wind  
Wind Speed 12 mph (SW)    
Max Wind Speed 44 mph    
Max Gust Speed 53 mph    
Visibility 9 miles    
Events Rain , Snow    
T = Trace of Precipitation, MM = Missing Value Source: NWS Daily Summary

Daily Weather History Graph

Daily Weather History Graph

Search for Another Location

Airport:

Trip Planner

Search our weather history database for the weather conditions in past years. The results will help you decide how hot, cold, wet, or windy it might be!

Date:

Astronomy

Mar. 26, 2014 Rise Set
Actual Time 7:05 AM MDT 7:28 PM MDT
Civil Twilight 6:39 AM MDT 7:54 PM MDT
Nautical Twilight 6:08 AM MDT 8:25 PM MDT
Astronomical Twilight 5:37 AM MDT 8:56 PM MDT
Moon 4:10 AM MDT 3:15 PM MDT
Length of Visible Light 13h 14m
Length of Day
12h 22m
Waning Crescent, 21% of the Moon is Illuminated
Mar 26
Waning Crescent
Mar 30
New
Apr 7
First Quarter
Apr 15
Full
Apr 22
Last Quarter

Hourly Weather History & Observations

Time (MDT) Temp. Windchill Dew Point Humidity Pressure Visibility Wind Dir Wind Speed Gust Speed Precip Events Conditions
12:53 AM 46.9 °F - 23.0 °F 39% 29.78 in 10.0 mi Calm Calm - N/A   Overcast
1:53 AM 44.1 °F 42.5 °F 23.0 °F 43% 29.76 in 10.0 mi North 3.5 mph - N/A   Overcast
2:53 AM 43.0 °F 41.3 °F 24.1 °F 47% 29.74 in 10.0 mi SSE 3.5 mph - N/A   Overcast
3:53 AM 42.1 °F 40.2 °F 27.0 °F 55% 29.72 in 10.0 mi ESE 3.5 mph - N/A   Overcast
4:53 AM 39.9 °F 37.8 °F 25.0 °F 55% 29.72 in 10.0 mi North 3.5 mph - N/A   Mostly Cloudy
5:53 AM 39.0 °F - 25.0 °F 57% 29.74 in 10.0 mi Calm Calm - N/A   Overcast
6:53 AM 35.1 °F 31.0 °F 26.1 °F 70% 29.75 in 10.0 mi East 4.6 mph - N/A   Partly Cloudy
7:53 AM 37.9 °F 34.4 °F 28.0 °F 68% 29.77 in 10.0 mi ENE 4.6 mph - N/A   Overcast
8:53 AM 42.1 °F 40.2 °F 30.0 °F 62% 29.77 in 10.0 mi ESE 3.5 mph - N/A   Overcast
9:53 AM 48.0 °F - 30.0 °F 50% 29.72 in 10.0 mi East 5.8 mph - N/A   Overcast
10:53 AM 48.9 °F - 28.9 °F 46% 29.72 in 10.0 mi Variable 4.6 mph - N/A   Scattered Clouds
11:53 AM 51.1 °F - 26.1 °F 38% 29.68 in 10.0 mi SSW 8.1 mph - N/A   Clear
12:53 PM 53.1 °F - 24.1 °F 32% 29.63 in 10.0 mi South 16.1 mph 23.0 mph N/A   Clear
1:53 PM 51.1 °F - 23.0 °F 33% 29.60 in 10.0 mi SSW 15.0 mph 33.4 mph N/A   Overcast
2:53 PM 46.0 °F 40.2 °F 28.9 °F 51% 29.63 in 10.0 mi SW 12.7 mph 25.3 mph 0.00 in Rain Light Rain
3:11 PM 45.0 °F 42.6 °F 30.9 °F 58% 29.66 in 10.0 mi SSW 4.6 mph - 0.00 in Rain Light Rain
3:19 PM 45.0 °F 40.6 °F 30.9 °F 58% 29.66 in 10.0 mi ESE 8.1 mph - 0.00 in   Overcast
3:53 PM 48.9 °F - 27.0 °F 43% 29.51 in 10.0 mi South 5.8 mph - 0.00 in   Overcast
4:53 PM 55.0 °F - 15.1 °F 21% 29.45 in 8.0 mi WSW 35.7 mph 42.6 mph N/A   Overcast
5:04 PM 55.0 °F - 14.0 °F 20% 29.57 in 8.0 mi WSW 29.9 mph 42.6 mph N/A   Overcast
5:11 PM 55.0 °F - 14.0 °F 20% 29.56 in 7.0 mi WSW 28.8 mph 42.6 mph N/A   Overcast
5:53 PM 54.0 °F - 12.0 °F 19% 29.45 in 7.0 mi WSW 40.3 mph 49.5 mph N/A   Overcast
6:53 PM 51.1 °F - 8.1 °F 18% 29.50 in 8.0 mi WSW 34.5 mph 47.2 mph N/A   Overcast
7:53 PM 45.0 °F 35.2 °F 25.0 °F 46% 29.54 in 7.0 mi WNW 29.9 mph 48.3 mph N/A   Overcast
8:11 PM 44.1 °F 33.7 °F 25.0 °F 47% 29.62 in 7.0 mi West 32.2 mph 52.9 mph N/A   Squalls
8:53 PM 36.0 °F 27.1 °F 30.9 °F 82% 29.66 in 10.0 mi West 13.8 mph 41.4 mph 0.00 in Rain Light Rain
9:53 PM 37.9 °F 28.9 °F 27.0 °F 65% 29.60 in 10.0 mi SW 16.1 mph 23.0 mph 0.00 in   Mostly Cloudy
10:27 PM 37.0 °F 26.4 °F 30.0 °F 76% 29.69 in 10.0 mi WSW 20.7 mph 32.2 mph 0.00 in   Mostly Cloudy
10:48 PM 33.8 °F 24.8 °F 32.0 °F 93% 29.70 in 2.5 mi WNW 12.7 mph 20.7 mph 0.00 in Snow Light Snow
10:53 PM 33.1 °F 26.1 °F 32.0 °F 96% 29.65 in 4.0 mi WNW 8.1 mph - 0.00 in Snow Light Snow
11:25 PM 35.1 °F 27.9 °F 32.0 °F 89% 29.70 in 10.0 mi WSW 9.2 mph - 0.00 in   Overcast
11:33 PM 35.1 °F 26.9 °F 32.0 °F 89% 29.70 in 9.0 mi SW 11.5 mph - 0.01 in Snow Light Snow
11:41 PM 35.1 °F 26.9 °F 32.0 °F 89% 29.70 in 9.0 mi SW 11.5 mph - 0.01 in   Overcast
11:53 PM 35.1 °F 26.9 °F 32.0 °F 89% 29.64 in 10.0 mi SW 11.5 mph - 0.01 in   Overcast